Flag Weather past 2 weeks in Pasadena, Texas, U.S.A.

Now
66 °F

Clear.


Feels Like: 66 °F
Forecast: 50 / 63 °F
Wind: 8 mph from South

Location: Houston / Ellington

Current Time: Nov 23, 2014 at 8:56:32 PM

Latest Report: Nov 23, 2014 at 7:50 PM


Visibility: 10 mi

Pressure: 29.65 "Hg

Humidity: 73%

Dew point: 57 °F

Location of PasadenaLocation

Historic Weather in Pasadena — Graph

°F

Pasadena temperature yesterday

Maximum temperature yesterday: 66 °F (at 1:50 PM)
Minimum temperature yesterday: 61 °F (at 6:50 AM)
Average temperature yesterday: 64 °F

Past Weeks' High & Low Weather Summary

 TemperatureHumidityPressure
High79 °F (Nov 10, 12:50 PM)100% (Nov 15, 8:50 PM)30.56 "Hg (Nov 15, 8:50 PM)
Low34 °F (Nov 19, 3:50 AM)23% (Nov 18, 1:50 PM)29.56 "Hg (Nov 23, 2:50 PM)
Average55 °F71%30.14 "Hg
* Reported Nov 8 7:50 PM — Nov 23 7:50 PM, Pasadena, Weather by CustomWeather, © 2014

Note: Actual official high and low records may vary slightly from our data, if they occured in-between our weather recording intervals... More about our weather records

Advertising

Pasadena weather history for previous 24 hours

 ConditionsComfort  
Time TempWeatherWind HumidityBarometerVisibility
7:50 PM
Nov 23
66 °FClear.8 mph73%29.65 "Hg10 mi
4:50 PM77 °FSunny.12 mph42%29.57 "Hg10 mi
3:50 PM79 °FSunny.14 mph45%29.56 "Hg10 mi
2:50 PM77 °FSunny.14 mph47%29.56 "Hg10 mi
1:50 PM75 °FSunny.17 mph57%29.57 "Hg10 mi
12:50 PM73 °FSunny.16 mph57%29.62 "Hg10 mi
11:50 AM73 °FSunny.13 mph57%29.64 "Hg10 mi
10:50 AM70 °FSunny.18 mph64%29.68 "Hg10 mi
9:50 AM66 °FSunny.15 mph88%29.70 "Hg10 mi
8:50 AM64 °FSunny.9 mph94%29.70 "Hg10 mi
7:50 AM63 °FPassing clouds.5 mph94%29.69 "Hg10 mi
6:50 AM59 °FPassing clouds.5 mph94%29.68 "Hg7 mi
5:50 AM61 °FPassing clouds.3 mph94%29.68 "Hg7 mi
4:50 AM61 °FPassing clouds.8 mph94%29.65 "Hg7 mi
2:50 AM63 °FMostly cloudy.6 mph100%29.68 "Hg7 mi
1:50 AM64 °FScattered showers. Mostly cloudy.3 mph100%29.64 "Hg7 mi
12:50 AM64 °FThunderstorms. Mostly cloudy.7 mph100%29.75 "Hg6 mi
11:50 PM
Nov 22
64 °FThunderstorms. Mostly cloudy.3 mph100%29.79 "Hg6 mi
10:50 PM64 °FThunderstorms. Mostly cloudy.5 mph100%29.79 "Hg6 mi
9:50 PM66 °FThunderstorms. Mostly cloudy.6 mph94%29.82 "Hg3 mi
8:50 PM66 °FFog.6 mph94%29.82 "Hg5 mi
Weather by CustomWeather, © 2014

See weather overviewHow to use our weather pages